GEFSMW_con_prob3kmehi_180.txt.gz
EHI
73 76 77 79 84 87 86 80 74 72 70 65 58 53 51 49 48 50 54 53 43 34 27 20 20 20 15 14 15 16 13 11 9 5 3 2 5 10 17 20 16 13 14
78 80 81 82 84 86 86 82 80 78 73 66 59 54 52 51 50 53 58 56 45 35 27 22 20 20 19 18 19 19 14 10 9 9 6 2 3 6 11 17 16 14 15
82 83 83 82 83 84 84 84 85 84 79 70 62 56 55 55 54 56 57 54 46 36 29 25 23 22 23 23 23 22 18 12 10 12 11 5 2 3 6 10 15 17 18
78 80 82 82 81 81 83 85 86 86 82 74 67 61 58 57 56 55 53 49 43 35 31 29 27 26 25 24 23 22 22 17 12 14 14 8 3 2 2 5 10 17 20
70 76 80 81 81 82 84 85 85 83 80 76 71 66 60 55 53 52 50 47 41 35 31 30 31 30 26 22 21 23 25 21 15 14 15 12 8 5 3 2 5 9 14
63 72 79 82 84 84 84 85 84 81 78 77 75 70 61 54 52 51 50 46 41 36 32 31 35 33 26 21 21 24 24 20 16 16 16 14 12 10 6 2 2 3 5
57 68 78 83 86 85 83 85 85 82 78 75 73 69 61 55 53 51 48 42 36 34 33 35 39 37 27 20 20 20 18 16 16 17 17 14 11 9 6 4 2 1 2
53 64 76 82 84 83 82 83 82 79 75 72 69 65 60 55 51 48 44 38 34 32 33 36 39 37 28 19 16 16 14 12 12 14 13 10 7 5 5 5 3 1 1
53 61 72 77 79 79 77 77 75 73 71 70 67 61 57 52 47 44 41 37 34 31 30 33 36 35 28 19 14 14 14 12 11 12 10 7 5 4 5 6 5 3 1
54 59 67 74 75 73 71 69 68 68 68 68 66 60 55 51 46 43 41 37 34 30 28 30 32 31 26 20 15 14 14 12 11 12 11 8 5 4 5 6 7 6 3
54 58 65 70 71 67 64 63 62 63 64 65 63 60 55 51 48 43 39 35 34 31 30 31 30 25 20 16 14 12 10 8 7 8 8 8 7 5 5 5 6 5 3
54 59 65 69 67 61 58 57 56 57 58 60 60 58 56 52 48 43 37 33 31 30 30 30 28 21 15 12 11 9 6 4 4 4 4 4 5 4 3 3 3 2 1
58 62 70 75 70 62 57 55 52 51 52 54 55 55 53 51 46 40 36 33 28 26 26 27 24 19 14 12 10 8 6 5 4 3 2 2 3 2 1 1 1 0 0
63 68 75 78 74 67 61 56 52 50 50 51 52 51 48 44 39 35 34 31 25 21 22 23 21 17 14 11 9 9 8 7 4 2 2 2 2 1 0 0 0 0 0
64 71 78 79 75 69 63 58 55 54 52 51 49 45 40 34 29 28 27 26 21 18 18 19 17 14 10 8 7 8 7 6 3 2 2 3 2 1 0 0 0 0 0
65 71 77 77 73 69 64 60 57 55 53 50 46 39 33 28 24 23 22 20 19 16 15 14 12 9 6 5 4 4 4 4 3 3 3 3 1 0 0 0 0 0 0
69 73 75 74 70 66 64 61 56 52 50 47 42 36 30 26 22 21 20 19 19 15 12 10 8 6 4 3 2 2 3 3 3 3 3 2 1 0 0 0 0 0 0
73 74 72 69 66 61 59 57 52 47 45 42 38 34 30 24 20 18 19 20 19 15 11 8 6 4 3 3 2 1 2 3 3 3 2 1 0 0 0 0 0 0 0
74 72 68 65 61 57 55 52 47 43 41 38 34 32 29 23 19 17 18 19 18 15 11 8 6 4 3 2 1 1 2 3 2 1 1 0 0 0 0 0 0 0 0
71 68 66 63 59 56 54 50 45 40 37 34 32 31 30 25 19 18 18 18 17 12 8 7 5 3 2 1 0 1 2 2 1 0 0 0 0 0 0 0 0 0 0
63 64 64 62 59 56 54 51 46 40 38 36 33 31 29 23 18 17 17 17 15 10 5 3 2 1 1 0 0 0 1 1 0 0 0 0 0 0 0 0 0 0 0
55 59 60 58 57 55 52 49 45 42 41 38 33 30 25 19 16 16 16 16 13 8 3 1 0 0 0 0 0 0 0 0 0 0 0 0 0 0 0 0 0 0 0
51 52 52 51 50 50 48 46 43 41 39 36 32 28 23 16 14 14 14 13 10 5 2 1 0 0 0 0 0 0 0 0 0 0 0 0 0 0 0 0 0 0 0
47 46 45 44 44 44 43 41 40 37 34 30 29 25 18 11 10 9 9 8 6 3 1 0 0 0 0 0 0 0 0 0 0 0 0 0 0 0 0 0 0 0 0
40 41 40 39 39 39 37 35 36 34 30 26 23 17 10 6 4 4 3 2 2 1 0 0 0 0 0 0 0 0 0 0 0 0 0 0 0 0 0 0 0 0 0
35 37 38 36 34 34 32 31 32 31 28 24 17 10 5 4 3 1 0 0 0 0 0 0 0 0 0 0 0 0 0 0 0 0 0 0 0 0 0 0 0 0 0

GEFSMW_con_prob3kmehi_186.txt.gz
EHI
45 49 55 59 60 62 65 65 61 54 46 39 29 20 11 6 6 10 14 17 18 17 14 9 6 5 3 2 1 0 0 0 0 0 0 0 0 0 0 0 1 2 2
51 55 62 67 69 68 69 69 66 60 51 43 34 24 15 8 7 10 14 16 17 17 13 7 4 3 2 1 0 1 1 0 0 0 0 0 0 0 0 0 0 1 1
56 60 67 74 76 75 73 71 70 66 57 48 41 33 23 14 11 11 13 15 17 18 13 6 3 3 2 2 1 2 2 1 0 0 0 0 0 0 0 0 0 0 0
57 61 67 73 77 76 72 69 67 64 58 51 46 41 32 21 14 13 13 15 17 18 14 9 6 5 5 4 3 3 3 1 0 0 0 0 0 0 0 0 0 0 0
59 62 66 70 74 74 70 65 61 57 55 52 48 43 34 24 16 13 13 13 13 14 15 12 9 6 6 5 3 2 2 1 0 0 0 0 0 0 0 0 0 0 0
60 61 64 68 72 72 68 62 57 53 51 50 46 40 33 26 19 15 13 11 10 11 12 11 8 5 3 3 1 1 1 1 0 0 0 0 0 0 0 0 0 0 0
60 60 62 66 70 72 67 60 53 50 50 48 44 38 34 30 23 16 13 11 10 10 10 10 8 5 2 1 0 0 0 0 0 0 0 0 0 0 0 0 0 0 0
59 59 60 63 67 69 64 57 51 48 49 47 42 37 34 30 24 17 13 12 12 11 10 9 8 6 3 1 0 0 0 0 0 0 0 0 0 0 0 0 0 0 0
56 57 57 58 60 62 58 53 49 48 48 45 39 36 33 30 26 21 16 13 11 9 9 8 7 7 4 2 1 1 0 0 0 0 0 0 0 0 0 0 0 0 0
51 51 52 51 52 53 51 48 47 46 45 42 38 35 33 31 30 26 20 13 9 8 8 7 6 6 5 4 3 1 1 1 1 0 0 0 0 0 0 0 0 0 0
45 46 47 46 46 47 46 45 46 45 42 39 37 35 33 33 32 27 20 13 10 8 7 6 6 6 5 4 3 2 2 2 1 0 0 0 0 0 0 0 0 0 0
42 44 46 46 44 44 44 45 46 44 41 39 37 34 33 31 28 23 17 13 10 8 7 5 5 5 3 2 2 1 1 1 1 0 0 0 0 0 0 0 0 0 0
42 44 48 46 43 43 45 47 46 44 42 39 36 33 30 26 21 16 13 11 9 7 6 4 4 3 2 2 2 1 0 0 0 0 0 0 0 0 0 0 0 0 0
45 46 47 44 41 43 47 48 45 44 42 38 34 30 26 21 16 12 10 8 7 5 4 3 3 3 3 3 2 1 1 0 0 0 0 0 0 0 0 0 0 0 0
48 48 46 42 41 44 49 47 43 40 39 35 30 26 20 16 13 10 8 6 4 3 3 3 3 3 3 3 3 3 2 1 1 1 1 0 0 0 0 0 0 0 0
49 49 46 43 44 47 49 45 39 37 35 32 26 20 15 13 11 9 8 5 3 3 3 3 3 3 3 3 2 2 2 2 2 2 1 0 0 0 0 0 0 0 0
48 49 48 47 47 47 47 42 37 34 32 28 21 15 13 12 11 9 7 4 2 3 3 3 2 2 2 1 1 1 1 2 2 1 1 0 0 0 0 0 0 0 0
50 51 50 49 48 46 44 42 36 32 29 24 18 14 12 13 11 9 6 4 2 2 2 1 1 1 1 0 0 0 0 1 1 0 0 0 0 0 0 0 0 0 0
53 53 52 50 49 46 43 40 36 31 26 22 18 15 15 14 13 9 6 4 2 1 1 0 0 0 0 0 0 0 0 0 0 0 0 0 0 0 0 0 0 0 0
53 53 51 50 50 46 41 37 33 30 25 21 17 16 15 15 13 10 5 2 0 0 0 0 0 0 0 0 0 0 0 0 0 0 0 0 0 0 0 0 0 0 0
51 49 48 47 46 42 37 33 31 29 25 20 17 13 11 11 12 10 6 2 0 0 0 0 0 0 0 0 0 0 0 0 0 0 0 0 0 0 0 0 0 0 0
44 43 42 42 40 36 33 31 30 28 25 20 14 9 6 7 8 8 6 3 1 0 0 0 0 0 0 0 0 0 0 0 0 0 0 0 0 0 0 0 0 0 0
35 36 36 37 36 33 30 30 30 28 24 19 12 6 3 3 4 4 4 3 2 1 0 0 0 0 0 0 0 0 0 0 0 0 0 0 0 0 0 0 0 0 0
30 31 32 33 32 30 28 29 28 25 21 15 8 4 2 1 1 1 2 2 2 1 0 0 0 0 0 0 0 0 0 0 0 0 0 0 0 0 0 0 0 0 0
25 26 27 28 28 28 27 25 24 21 15 9 4 1 1 0 0 0 1 1 1 0 0 0 0 0 0 0 0 0 0 0 0 0 0 0 0 0 0 0 0 0 0
22 22 23 24 25 26 25 22 20 17 10 4 1 0 0 0 0 0 0 0 0 0 0 0 0 0 0 0 0 0 0 0 0 0 0 0 0 0 0 0 0 0 0

GEFSMW_con_prob3kmehi_192.txt.gz
EHI
10 10 11 11 10 12 15 17 16 15 16 14 8 4 2 1 2 3 4 6 8 8 6 3 2 2 1 0 0 0 0 0 0 0 0 0 0 0 0 0 0 0 0
10 10 11 13 14 16 19 20 19 19 21 21 15 9 5 4 3 3 3 5 7 7 4 2 2 2 1 0 0 0 0 0 0 0 0 0 0 0 0 0 0 0 0
7 9 11 14 19 23 25 25 24 25 28 28 23 17 11 9 6 4 2 3 4 4 3 1 2 2 1 0 0 0 1 1 1 0 0 0 0 0 0 0 0 0 0
6 8 11 15 21 25 27 29 28 28 30 30 27 24 19 14 10 5 3 2 2 2 2 2 3 2 1 1 1 1 1 2 1 0 0 0 0 0 0 0 0 0 0
9 9 12 17 23 26 28 30 29 28 29 29 28 28 24 17 11 7 4 3 2 3 3 3 3 3 2 1 2 1 1 1 1 0 0 0 0 0 0 0 0 0 0
15 14 16 22 27 28 30 31 30 30 29 29 29 28 24 18 12 8 6 6 5 5 4 3 3 2 2 1 1 1 0 0 0 0 0 0 0 0 0 0 0 0 0
20 21 24 28 31 31 32 33 32 31 31 31 29 25 21 17 13 10 9 9 9 7 5 4 3 1 1 0 0 0 0 0 0 0 0 0 0 0 0 0 0 0 0
22 25 27 28 29 30 31 31 31 29 28 28 26 21 18 15 13 11 10 9 9 8 4 3 2 1 0 0 0 0 0 0 0 0 0 0 0 0 0 0 0 0 0
22 25 28 27 26 26 26 25 25 23 22 22 21 20 17 15 13 10 8 8 7 5 2 1 1 0 0 0 0 0 0 0 0 0 0 0 0 0 0 0 0 0 0
24 26 29 27 24 23 22 19 19 17 17 17 18 19 18 16 13 9 6 5 4 2 1 1 1 1 1 1 0 0 0 0 0 0 0 0 0 0 0 0 0 0 0
23 25 27 25 22 21 19 17 16 16 16 17 17 17 17 16 12 7 3 2 1 0 0 0 1 1 2 2 1 0 0 0 1 1 1 0 0 0 0 0 1 1 1
21 23 23 22 20 19 17 15 15 16 16 16 15 14 13 13 9 5 2 0 0 0 0 0 0 1 3 2 1 0 0 1 2 2 2 1 1 1 1 1 2 2 2
20 21 21 20 20 19 17 16 16 15 15 14 12 12 12 10 6 3 1 0 0 0 0 0 1 1 3 3 1 1 1 2 3 3 3 3 2 2 2 2 2 2 2
21 21 20 21 21 20 18 18 19 17 16 15 14 14 12 9 4 1 0 0 0 0 0 0 1 2 3 3 2 2 2 3 3 3 3 3 2 2 2 2 1 1 1
22 21 20 22 22 20 18 19 21 21 18 17 16 14 12 8 3 1 1 1 1 0 0 1 2 2 2 2 1 1 3 3 3 2 2 1 1 1 1 1 0 0 0
24 22 21 22 21 21 21 21 21 21 19 17 15 13 11 7 3 2 3 3 2 1 0 1 1 1 1 1 0 1 2 2 1 1 1 0 0 0 0 0 0 0 0
27 25 22 20 20 22 23 22 20 19 17 15 13 12 10 8 5 4 5 5 3 1 0 1 1 0 0 0 0 0 1 1 0 0 0 0 0 0 0 0 0 0 0
29 25 19 17 20 22 23 22 20 17 15 13 11 11 10 9 8 8 8 6 3 1 0 0 0 0 0 0 0 0 0 0 0 0 0 0 0 0 0 0 0 0 0
31 26 20 18 21 23 22 21 19 15 12 11 10 11 11 10 10 9 7 4 1 0 0 0 0 0 0 0 0 0 0 0 0 0 0 0 0 0 0 0 0 0 0
32 29 25 22 22 22 22 20 17 13 11 10 10 10 10 10 9 7 4 1 0 0 0 0 0 0 0 0 0 0 0 0 0 0 0 0 0 0 0 0 0 0 0
31 30 27 24 22 21 20 19 16 13 11 11 10 9 9 8 6 3 1 0 0 0 0 0 0 0 0 0 0 0 0 0 0 0 0 0 0 0 0 0 0 0 0
27 27 26 23 20 19 19 18 16 14 13 11 8 8 7 5 4 2 0 0 0 0 0 0 0 0 0 0 0 0 0 0 0 0 0 0 0 0 0 0 0 0 0
25 25 25 23 19 18 18 17 16 15 14 11 7 5 4 3 3 2 1 1 0 0 0 0 0 0 0 0 0 0 0 0 0 0 0 0 0 0 0 0 0 0 0
24 26 26 24 20 18 17 16 15 15 14 11 6 3 1 1 2 2 2 1 0 0 0 0 0 0 0 0 0 0 0 0 0 0 0 0 0 0 0 0 0 0 0
25 27 28 24 19 17 16 14 13 13 12 8 4 2 0 0 1 1 1 1 0 0 0 0 0 0 0 0 0 0 0 0 0 0 0 0 0 0 0 0 0 0 0
25 27 27 22 17 15 14 12 12 12 10 6 2 1 0 0 0 0 0 0 0 0 0 0 0 0 0 0 0 0 0 0 0 0 0 0 0 0 0 0 0 0 0

GEFSMW_con_prob3kmehi_198.txt.gz
EHI
10 12 12 10 14 23 30 29 26 30 33 30 24 20 15 13 12 11 10 9 7 7 9 10 9 7 6 7 7 7 5 4 3 2 1 0 0 1 0 0 0 0 0
14 16 14 12 16 25 32 32 31 33 36 34 28 23 19 14 12 11 10 9 8 8 9 10 9 9 9 9 8 7 6 5 5 5 3 1 0 1 0 0 0 0 1
13 15 16 15 19 27 33 35 36 39 42 40 31 26 23 17 13 14 12 10 10 10 10 10 9 10 12 12 10 8 7 6 6 8 6 2 0 1 0 0 0 0 1
9 11 14 16 20 25 30 35 39 43 46 43 35 30 26 20 16 16 14 12 12 13 13 11 11 11 12 13 11 8 6 6 6 8 7 3 1 1 1 1 0 0 1
10 10 12 16 19 21 27 36 42 46 47 44 40 37 31 24 20 19 17 15 15 16 16 14 13 12 12 12 11 8 5 4 5 6 5 4 2 1 1 1 0 0 1
16 16 17 20 22 24 31 39 46 48 48 46 44 42 37 30 25 22 21 19 16 17 17 15 14 12 11 12 12 9 6 4 3 3 3 3 3 3 3 2 1 1 2
24 26 29 30 32 34 38 43 49 51 51 49 47 44 39 32 26 23 22 19 16 17 18 16 14 11 10 11 12 10 8 5 3 4 3 2 4 6 6 3 2 2 3
32 33 34 36 38 39 41 45 50 52 50 47 45 41 35 26 21 20 20 18 17 17 17 16 15 13 12 13 12 10 8 6 5 5 4 4 6 8 7 6 5 3 3
33 32 33 34 35 37 39 44 49 49 46 43 40 35 30 24 20 20 21 21 19 16 15 15 15 15 15 15 13 10 9 8 6 5 4 5 6 7 8 8 8 5 3
31 32 33 31 29 31 35 40 44 43 40 38 37 32 28 26 25 24 23 22 19 16 14 14 14 15 15 14 13 11 10 8 6 5 4 5 7 7 7 8 7 5 5
33 34 33 30 27 28 32 36 38 36 34 33 33 30 28 28 27 25 22 18 15 14 13 12 12 13 12 11 11 11 10 8 6 5 4 4 5 5 6 6 5 4 5
35 34 33 32 30 29 30 33 33 30 28 29 29 28 28 29 26 23 19 16 13 11 10 10 11 11 11 10 10 11 10 8 6 4 3 3 3 4 4 4 4 3 3
37 36 36 35 32 28 27 29 30 27 27 29 29 29 30 28 25 21 19 16 14 10 8 9 11 12 12 10 8 8 8 7 5 3 2 1 2 3 3 3 2 2 1
43 41 40 38 33 28 27 29 29 30 31 33 34 33 31 27 23 20 18 16 14 11 10 11 14 15 14 10 7 6 7 6 4 3 2 1 1 1 1 1 1 1 0
44 43 42 41 36 32 31 32 33 36 37 37 36 33 29 25 21 18 16 16 16 14 13 13 15 16 13 9 6 5 6 5 4 4 3 1 0 0 0 0 1 0 0
43 44 45 45 41 36 35 36 39 40 40 37 34 30 27 23 19 16 17 18 18 17 16 15 15 14 10 5 3 4 5 5 4 4 3 1 0 0 0 0 0 0 0
41 44 48 49 45 41 40 40 41 41 38 32 28 25 24 22 18 17 18 19 18 18 16 14 13 11 7 2 0 1 2 3 3 3 2 1 0 0 0 0 0 0 0
40 44 49 50 48 45 43 42 41 40 34 27 24 23 23 22 20 19 19 18 17 16 14 11 9 8 4 1 0 0 1 1 2 2 1 0 0 0 0 0 0 0 0
42 44 48 48 48 47 45 44 42 39 33 28 25 23 21 20 19 19 19 17 15 13 10 7 6 4 2 0 0 0 0 0 2 2 1 0 0 0 0 0 1 1 1
45 46 47 47 48 48 48 46 43 40 35 30 27 24 20 19 18 18 17 15 13 9 6 4 3 3 2 0 0 0 0 1 2 3 2 0 0 0 0 0 1 1 0
50 49 47 47 46 47 47 45 41 38 35 31 27 23 20 19 18 17 15 12 9 6 4 3 3 2 1 0 0 0 0 1 2 2 1 0 0 0 0 0 0 0 0
52 49 47 44 41 39 40 39 37 35 33 30 26 21 19 18 16 15 13 9 6 5 4 3 3 2 0 0 0 0 0 0 1 1 0 0 0 0 0 0 0 0 0
50 49 46 41 37 33 33 34 34 33 32 28 24 20 16 14 14 14 11 8 5 4 3 3 3 2 1 0 0 0 0 0 0 0 0 0 0 0 0 0 0 0 0
51 49 45 40 37 34 32 32 32 32 31 27 22 18 14 13 13 12 9 6 5 4 3 3 3 3 2 1 0 0 0 0 0 0 0 0 0 0 0 0 0 0 0
49 48 44 40 38 37 34 32 31 30 28 25 20 15 13 12 12 9 6 4 4 4 3 2 2 2 2 1 0 0 0 0 0 0 0 0 0 0 0 0 0 0 0
46 46 43 38 36 36 35 33 32 30 28 24 19 14 12 12 10 7 4 2 2 2 1 1 1 1 1 0 0 0 0 0 0 0 0 0 0 0 0 0 0 0 0

GEFSMW_con_prob3kmehi_204.txt.gz
EHI
50 49 45 46 58 69 72 66 57 52 48 40 32 29 29 28 27 29 31 28 23 21 20 20 20 19 16 12 11 12 12 9 8 6 3 1 3 6 11 14 14 10 8
60 59 54 53 62 73 75 72 68 64 57 46 36 31 30 28 27 29 29 27 23 19 18 19 20 18 15 13 13 14 13 10 7 6 4 2 3 4 7 12 14 12 11
64 64 62 61 66 73 73 72 76 75 66 53 42 37 35 31 28 29 31 29 24 19 18 19 19 16 14 14 15 16 13 9 7 5 4 4 4 4 6 8 12 14 16
58 63 66 66 67 68 68 71 77 77 68 57 48 44 42 37 31 33 35 33 29 24 22 22 22 18 15 13 13 14 13 9 6 5 4 4 5 5 5 5 8 13 17
53 59 67 71 69 65 67 74 79 76 69 61 53 49 45 39 34 35 36 35 33 30 27 28 30 26 18 14 12 12 12 9 7 5 4 4 4 4 3 3 5 9 11
51 56 65 72 70 64 68 77 80 77 70 62 56 52 48 41 36 35 36 36 36 34 32 33 36 33 24 19 17 14 11 9 9 9 6 4 3 2 1 3 4 5 7
51 56 65 72 70 66 70 77 79 77 70 62 57 55 50 45 41 38 37 38 37 36 36 36 37 34 27 23 21 16 11 9 10 10 9 7 4 2 1 2 3 4 5
53 58 66 71 72 72 73 76 77 74 68 62 59 56 51 46 43 41 38 37 35 34 35 35 34 32 27 24 21 15 11 8 7 7 8 8 6 3 2 2 2 2 3
54 56 61 66 71 74 75 76 76 73 67 62 60 55 49 43 40 39 37 35 33 31 30 30 29 27 23 21 18 14 10 8 6 5 6 7 6 4 4 2 1 1 2
52 53 56 62 68 73 74 74 74 71 66 62 57 52 46 40 37 36 35 35 33 28 24 23 23 22 20 18 15 12 10 9 8 6 6 5 5 5 5 3 1 2 3
52 53 56 61 65 69 71 69 68 67 63 58 54 49 43 39 36 35 34 34 30 24 20 18 18 18 18 18 15 11 9 9 8 7 6 5 5 6 5 2 1 2 4
52 53 57 62 64 66 66 63 62 60 56 52 50 48 43 39 37 35 33 31 26 22 21 20 19 19 20 19 16 12 10 9 8 7 7 7 7 7 5 3 1 2 3
51 52 58 62 62 61 61 58 56 54 50 48 47 47 44 40 37 34 31 27 23 22 23 24 23 22 21 18 15 14 12 11 9 9 9 8 7 7 6 3 1 0 1
52 54 61 64 61 59 58 55 52 50 49 47 46 45 44 41 37 33 28 24 21 21 22 24 23 22 19 16 15 14 13 11 10 9 10 9 8 6 4 2 0 0 0
51 55 62 66 63 60 58 54 51 51 51 48 46 45 44 40 37 33 28 23 21 20 20 21 21 19 16 12 12 12 11 9 7 8 8 7 5 4 2 1 0 0 0
50 55 63 67 65 60 58 57 55 56 55 51 48 46 43 39 36 33 29 24 21 18 18 19 19 16 11 7 6 7 7 6 5 5 4 3 2 1 1 0 0 0 0
53 57 62 65 63 59 58 58 58 58 57 53 51 47 43 39 35 31 29 25 20 17 17 18 16 13 7 3 3 4 5 5 4 3 3 2 1 0 0 0 0 0 0
56 58 60 60 59 58 57 57 57 56 54 52 50 46 41 38 33 30 28 24 19 16 16 16 13 9 5 2 2 3 3 4 3 3 3 3 2 0 0 0 0 0 0
60 60 59 58 57 57 57 56 57 55 52 49 47 43 39 36 32 29 26 23 19 16 13 11 9 6 3 1 1 2 3 3 3 3 3 3 1 0 0 0 0 0 0
63 62 60 59 59 59 58 57 57 55 50 46 43 41 37 34 30 27 25 22 19 15 10 8 6 4 2 1 0 1 3 3 3 3 3 1 0 0 0 0 0 0 0
60 61 61 62 62 61 60 58 56 53 48 44 41 38 34 31 28 27 24 22 20 16 11 7 5 3 2 1 0 1 2 3 3 3 2 1 0 0 0 0 0 0 0
56 58 60 61 61 61 60 59 56 51 46 42 37 32 27 25 25 26 24 22 21 17 12 8 5 3 3 1 0 0 1 1 2 2 2 1 0 0 0 0 0 0 0
55 57 57 57 59 59 58 57 54 50 44 39 33 26 21 20 22 23 21 20 19 16 12 9 6 4 3 2 1 0 0 0 1 1 1 0 0 0 0 0 0 0 0
55 56 56 55 57 57 56 55 51 47 41 35 30 24 20 20 22 21 17 15 15 14 11 9 8 6 4 3 1 0 0 0 0 0 0 0 0 0 0 0 0 0 0
56 55 54 53 53 53 53 52 49 44 38 32 27 23 20 20 20 17 13 10 9 9 8 8 8 7 5 2 1 0 0 0 0 0 0 0 0 0 0 0 0 0 0
55 54 51 49 50 50 50 50 48 43 38 32 26 22 20 18 16 13 10 6 4 4 4 4 6 6 4 2 0 0 0 0 0 0 0 0 0 0 0 0 0 0 0

GEFSMW_con_prob3kmehi_210.txt.gz
EHI
24 23 24 29 30 25 18 14 14 14 14 14 12 9 6 4 4 4 6 6 8 10 9 6 5 6 6 6 5 5 3 2 1 0 0 0 0 0 0 0 0 0 0
25 24 28 35 38 34 26 21 21 21 19 17 14 11 9 7 5 5 6 7 9 11 10 6 5 5 5 5 5 4 3 1 0 0 0 0 0 0 0 0 0 0 0
25 27 32 39 44 45 38 31 29 30 27 24 22 19 16 13 9 7 7 8 11 12 10 8 6 4 4 4 4 4 3 2 1 0 0 0 0 0 0 0 0 0 0
23 27 33 38 46 51 47 38 33 33 32 31 30 28 22 17 12 10 8 8 9 11 9 8 6 4 3 3 3 3 3 2 1 0 0 0 0 0 0 0 0 0 0
21 25 32 38 45 52 51 44 37 34 34 34 35 32 25 17 13 11 9 7 6 7 7 6 5 4 3 3 3 3 3 2 1 0 0 0 0 0 0 0 0 0 0
23 26 31 38 46 52 54 52 48 43 39 37 36 34 27 19 14 13 10 7 4 4 6 5 4 3 3 3 3 3 3 2 1 0 0 0 0 0 0 0 0 0 0
28 31 35 40 48 52 56 58 58 55 48 42 38 35 30 24 18 15 13 9 6 5 5 6 5 4 3 3 3 3 3 2 1 0 0 0 0 0 0 0 0 0 0
32 36 41 46 49 51 54 58 61 59 52 44 40 36 33 29 24 21 17 12 9 6 5 5 5 4 3 4 3 3 3 2 1 0 0 0 0 0 0 0 0 0 0
36 39 44 47 48 46 49 56 59 55 48 42 40 38 35 32 28 24 20 14 9 6 5 5 5 4 5 5 4 3 3 3 1 0 0 0 0 0 0 0 0 0 0
41 42 45 46 44 43 46 52 53 48 41 39 38 37 35 32 28 23 19 14 9 7 6 5 4 5 6 6 5 3 3 3 2 1 0 0 0 0 0 0 0 0 0
43 44 45 45 44 43 44 47 46 42 38 37 37 36 33 30 26 21 17 13 10 9 8 5 4 5 6 7 6 4 3 3 2 1 0 0 0 0 0 0 0 0 0
43 44 44 46 46 44 43 42 40 39 37 35 35 35 31 27 24 21 17 14 12 10 9 7 6 6 7 8 8 6 4 3 2 1 0 0 0 0 0 0 0 0 0
42 42 42 44 46 44 39 37 36 37 36 35 34 32 29 24 22 21 18 14 11 10 10 9 8 7 8 8 7 6 3 2 2 1 0 0 0 0 0 0 0 0 0
37 37 37 41 44 41 35 31 33 35 37 37 34 30 26 22 21 19 16 13 11 10 10 11 9 7 7 6 6 5 3 1 1 0 0 0 0 0 0 0 0 0 0
30 32 35 39 42 40 34 31 32 36 40 42 37 30 24 21 19 17 14 11 10 9 8 9 9 6 5 4 5 5 3 2 1 1 0 0 0 0 0 0 0 0 0
30 31 35 40 43 42 39 36 35 38 42 43 39 30 23 20 18 15 12 10 8 7 6 7 7 6 4 3 4 4 3 3 3 2 1 0 0 0 0 0 0 0 0
35 35 38 42 44 44 45 44 42 41 41 40 37 30 25 22 19 15 13 11 8 6 6 6 6 5 4 3 3 3 3 3 3 3 1 0 0 0 0 0 0 0 0
40 41 44 46 47 47 48 49 46 41 38 36 34 30 26 24 21 17 14 11 9 7 6 6 6 4 3 3 3 3 3 3 3 3 2 1 0 0 0 0 0 0 0
46 47 48 50 49 49 49 48 44 39 35 33 30 28 25 22 19 16 13 11 8 7 6 6 6 4 3 3 3 2 3 3 3 3 2 1 0 0 0 0 0 0 0
49 48 48 48 48 47 44 42 39 34 30 28 26 24 22 19 16 14 12 10 7 6 6 6 5 4 3 3 2 1 2 3 3 3 3 1 0 0 0 0 0 0 0
47 45 43 43 44 42 40 37 34 29 25 23 22 21 19 16 14 13 11 8 7 6 6 6 4 3 3 3 1 1 2 3 3 3 3 2 1 0 0 0 0 0 0
43 40 39 39 39 39 37 34 30 25 22 20 19 18 17 15 14 13 10 8 6 6 6 5 4 3 3 2 1 1 2 3 3 3 3 2 1 0 0 0 0 0 0
39 37 37 38 38 37 36 33 28 23 20 17 16 15 15 15 14 12 9 7 6 6 6 4 3 3 3 2 1 0 1 1 2 2 2 2 1 0 0 0 0 0 0
35 34 35 36 36 36 35 31 26 22 18 15 14 14 14 15 13 11 9 7 6 6 5 4 3 3 3 2 1 0 0 0 1 1 1 1 0 0 0 0 0 0 0
31 31 33 34 33 34 33 28 24 21 17 14 14 15 16 14 12 9 6 5 5 4 4 3 3 3 3 2 1 0 0 0 0 0 0 0 0 0 0 0 0 0 0
28 30 32 32 32 31 29 26 24 21 17 14 14 17 17 14 12 8 4 2 2 2 2 3 3 3 3 2 1 0 0 0 0 0 0 0 0 0 0 0 0 0 0

GEFSMW_con_prob3kmehi_216.txt.gz
EHI
3 3 2 1 2 1 1 3 4 4 2 1 1 1 0 0 0 1 1 2 2 2 3 3 3 3 3 3 3 3 1 0 0 1 0 0 0 0 0 0 0 0 0
3 3 2 1 2 1 1 3 5 5 4 3 3 2 1 0 0 1 2 1 1 1 3 3 3 3 3 2 3 3 2 1 1 1 0 0 0 0 0 0 0 0 0
4 3 2 2 3 2 2 5 6 5 5 6 5 4 2 0 0 1 1 1 0 1 2 3 3 3 3 3 3 3 3 3 2 1 0 0 0 0 0 0 0 0 0
5 4 2 2 4 5 5 5 6 5 5 6 7 6 3 1 0 0 0 0 0 0 1 1 3 3 3 3 3 3 3 3 3 1 0 0 0 0 0 0 0 0 0
6 4 3 4 6 8 7 6 5 5 4 6 7 6 4 1 0 0 0 0 0 0 0 1 2 3 3 3 3 3 3 3 3 2 1 0 0 0 0 0 0 0 0
6 5 5 7 9 11 11 8 7 6 5 5 5 4 3 2 1 1 1 0 0 0 0 0 1 1 3 3 3 3 3 3 3 2 1 0 0 0 0 0 0 0 0
7 8 9 10 10 12 14 13 12 9 6 5 5 4 4 4 4 3 1 0 0 0 0 0 0 1 3 3 3 3 3 3 3 3 1 0 0 0 0 0 0 0 0
8 10 12 11 10 12 17 19 18 14 10 7 6 6 6 7 7 5 3 1 0 0 0 1 1 2 3 3 3 3 3 3 3 3 2 1 0 0 0 0 0 0 0
8 12 14 13 11 13 18 22 21 17 12 8 7 7 8 9 10 9 6 4 2 1 1 2 3 3 3 3 3 3 3 3 3 3 2 1 0 0 0 0 0 0 0
8 12 14 13 12 13 17 20 20 16 12 9 8 9 9 11 12 12 10 7 5 3 3 4 3 3 3 3 3 3 3 3 3 2 2 1 0 0 0 0 0 0 0
8 10 12 11 11 13 15 16 15 13 11 10 10 9 9 10 13 13 12 10 8 6 5 4 3 2 2 2 1 1 2 2 1 1 1 0 0 0 0 0 0 0 0
7 9 11 10 10 12 13 13 12 11 11 11 11 10 9 11 13 13 12 11 9 6 5 3 1 1 1 1 0 0 1 1 1 0 0 1 1 0 0 0 0 0 0
9 10 10 9 9 11 12 11 10 11 12 13 14 13 12 12 13 12 10 9 8 6 3 1 0 0 0 1 0 0 1 2 1 1 1 2 2 1 0 0 0 0 0
12 11 9 9 10 12 12 11 10 12 15 17 17 16 14 12 10 9 7 7 6 5 3 2 1 0 0 0 0 0 1 2 1 1 1 2 2 1 0 0 0 0 0
14 13 12 13 16 16 15 13 13 17 20 21 20 17 13 10 7 6 5 5 5 4 3 3 2 1 0 0 0 1 1 2 1 1 1 1 1 1 0 0 0 0 0
16 16 16 18 20 20 17 16 18 22 23 24 22 17 12 9 7 6 6 6 5 4 3 3 3 1 1 0 0 1 2 3 3 2 1 1 1 1 0 0 0 0 0
18 19 20 20 21 22 20 20 23 25 25 25 21 16 13 12 11 8 7 8 7 5 4 4 4 3 2 1 0 1 3 3 3 3 3 2 2 2 1 1 0 0 0
22 23 23 21 22 24 26 26 26 26 25 23 20 16 14 14 13 10 8 8 8 7 6 6 5 4 2 2 1 1 2 3 3 3 3 3 3 3 3 2 1 0 0
23 24 25 23 23 26 29 29 27 26 24 21 19 17 15 14 12 9 8 8 8 7 6 6 6 5 4 3 2 1 2 3 3 3 3 3 3 3 3 3 2 1 0
22 23 24 23 23 25 27 28 26 24 22 20 20 18 15 11 9 8 8 8 7 7 6 6 6 6 5 4 3 2 3 3 3 3 3 3 3 3 2 2 3 2 1
24 24 23 22 22 23 25 25 25 23 20 20 21 19 13 9 8 8 9 8 6 6 6 6 6 6 5 4 3 3 3 3 3 3 3 3 3 2 1 1 2 2 1
29 27 25 24 23 24 25 25 24 21 19 20 20 17 13 10 9 9 9 8 6 5 5 6 6 6 4 3 3 3 2 2 3 3 3 3 3 2 1 0 1 1 0
29 27 25 25 24 24 24 24 22 19 19 19 17 14 12 11 9 9 9 9 7 6 6 6 6 6 4 3 3 3 1 1 2 3 3 3 2 1 1 0 0 0 0
25 23 23 23 23 23 23 22 21 20 19 17 14 12 11 10 8 7 7 8 8 6 6 6 6 5 4 3 3 2 2 1 2 3 3 2 1 1 2 1 0 0 0
22 21 20 20 20 21 20 19 20 20 18 14 11 11 10 9 7 4 4 5 5 4 4 4 5 4 3 2 1 1 2 2 2 3 3 3 2 3 3 2 1 0 0
23 21 18 17 18 19 18 17 18 19 16 12 10 10 10 8 5 3 2 2 2 3 3 4 3 2 1 1 0 0 1 2 3 3 3 3 3 3 3 2 1 0 0